TELKOM 4 (MERAH PUTIH) (43587 NORAD) Tracking and Keplerian Element Data

This shows tracking and keplerian element data for the satellite.

Feedback or suggestion? Click here.




ElementValue
Catalog43587
NameTELKOM 4 (MERAH PUTIH)
Epoch Orbit348
Epoch Day193.890925
Epoch Year2019
RAAN20.1681
Inclination0.018
Eccentricity0.0001685
Argument of Perigee93.9554
Mean Anonmoly245.0812
Mean Motion1.00271667
Decay Rate-3.56E-06
L11 43587U 18064A 19193.89092500 -.00000356 00000-0 00000-0 0 9997
L22 43587 0.0180 20.1681 0001685 93.9554 245.0812 1.00271667 3488

Live tracking and technical data element details for TELKOM 4 (MERAH PUTIH) (NORAD 43587). TELKOM 4 (MERAH PUTIH) can be tracked NOW for your location showing map with azimuth and elevation plus other details from your city location.

Track the satellite on the map from your city or location and see movement details for azimuth, elevation, latitude, longitude, range, height, and movement on the map or in text.







IsCatalogInMostPopularTable: catalog: 43587, numindb: 170
Update: records affected: 1



GetName: 43587 TELKOM 4 (MERAH PUTIH)

Hit Count: updated at: Mon, 15 Jul 2019 22:18:45 GMT